| time (UTC) | temp C | wind direction | speed KPH | gust KPH | rain 1hr cm | rain 24hr cm | rain mn cm | humidity % | barometer mb |
| 20260504090140 | 10 | 208 | 6.4 | 6.4 | 0.00 | 0.00 | 0.00 | 72 | 1007.0 |
| 20260504081610 | 10 | 194 | 4.8 | 4.8 | 0.00 | 0.00 | 0.00 | 70 | 1007.0 |
| 20260504081106 | 10 | 182 | 6.4 | 11.3 | 0.00 | 0.00 | 0.00 | 71 | 1007.0 |
| 20260504080603 | 10 | 203 | 9.7 | 11.3 | 0.00 | 0.00 | 0.00 | 70 | 1007.1 |
| 20260504050416 | 10 | 166 | 0.0 | 0.0 | 0.00 | 0.00 | 0.00 | 73 | 1009.4 |
| 20260504045913 | 10 | 164 | 3.2 | 4.8 | 0.00 | 0.00 | 0.00 | 73 | 1009.2 |
| 20260504045408 | 10 | 164 | 3.2 | 4.8 | 0.00 | 0.00 | 0.00 | 73 | 1009.5 |
| 20260504044905 | 10 | 166 | 3.2 | 4.8 | 0.00 | 0.00 | 0.00 | 73 | 1009.3 |
| 20260504044403 | 10 | 173 | 4.8 | 9.7 | 0.00 | 0.00 | 0.00 | 74 | 1009.6 |
| 20260504043900 | 10 | 154 | 3.2 | 3.2 | 0.00 | 0.00 | 0.00 | 75 | 1009.3 |
| 20260504043356 | 10 | 154 | 3.2 | 3.2 | 0.00 | 0.00 | 0.00 | 75 | 1009.3 |
| 20260504042854 | 10 | 166 | 1.6 | 4.8 | 0.00 | 0.00 | 0.00 | 75 | 1009.6 |
| 20260504042350 | 10 | 174 | 3.2 | 4.8 | 0.00 | 0.00 | 0.00 | 75 | 1009.5 |
| 20260504041846 | 10 | 153 | 3.2 | 4.8 | 0.00 | 0.00 | 0.00 | 75 | 1009.6 |
| 20260504041343 | 10 | 196 | 3.2 | 3.2 | 0.00 | 0.00 | 0.00 | 75 | 1009.6 |
| 20260504040839 | 10 | 169 | 1.6 | 3.2 | 0.00 | 0.00 | 0.00 | 74 | 1009.7 |
| 20260504040337 | 10 | 169 | 1.6 | 3.2 | 0.00 | 0.00 | 0.00 | 74 | 1009.7 |
| 20260504035832 | -17 | 0.0 | 0.0 | 0.00 | 0.00 | 0.00 | 1009.7 | ||
| 20260504035330 | -17 | 0.0 | 0.0 | 0.00 | 0.00 | 0.00 | 1009.8 | ||
| 20260504034827 | 9 | 140 | 6.4 | 6.4 | 0.00 | 0.00 | 0.00 | 75 | 1009.8 |
| 20260504034325 | 9 | 140 | 6.4 | 6.4 | 0.00 | 0.00 | 0.00 | 75 | 1009.9 |
| 20260504033821 | 9 | 155 | 3.2 | 3.2 | 0.00 | 0.00 | 0.00 | 75 | 1009.9 |
| 20260504033320 | 9 | 159 | 8.0 | 12.9 | 0.00 | 0.00 | 0.00 | 75 | 1009.8 |
| 20260504032816 | 9 | 176 | 3.2 | 3.2 | 0.00 | 0.00 | 0.00 | 75 | 1010.0 |
| 20260504032313 | 9 | 176 | 3.2 | 3.2 | 0.00 | 0.00 | 0.00 | 75 | 1009.7 |
| 20260504031810 | 9 | 141 | 3.2 | 4.8 | 0.00 | 0.00 | 0.00 | 75 | 1010.0 |
| 20260504031307 | 9 | 161 | 3.2 | 3.2 | 0.00 | 0.00 | 0.00 | 75 | 1010.1 |
| 20260504030803 | 9 | 159 | 6.4 | 6.4 | 0.00 | 0.00 | 0.00 | 76 | 1010.0 |
| 20260504030301 | 9 | 169 | 4.8 | 4.8 | 0.00 | 0.00 | 0.00 | 76 | 1010.0 |
| 20260504025756 | 9 | 152 | 4.8 | 4.8 | 0.00 | 0.00 | 0.00 | 76 | 1010.1 |
| 20260504025254 | 9 | 143 | 3.2 | 3.2 | 0.00 | 0.00 | 0.00 | 76 | 1010.1 |
| 20260504024750 | 8 | 152 | 3.2 | 3.2 | 0.00 | 0.00 | 0.00 | 77 | 1010.3 |
| 20260504024247 | 8 | 157 | 4.8 | 4.8 | 0.00 | 0.00 | 0.00 | 77 | 1010.3 |
| 20260504023744 | 8 | 146 | 3.2 | 3.2 | 0.00 | 0.00 | 0.00 | 77 | 1010.4 |
| 20260504023240 | 8 | 143 | 3.2 | 3.2 | 0.00 | 0.00 | 0.00 | 77 | 1010.5 |
| 20260504022736 | 8 | 161 | 6.4 | 6.4 | 0.00 | 0.00 | 0.00 | 77 | 1010.4 |
| 20260504022232 | 8 | 152 | 3.2 | 3.2 | 0.00 | 0.00 | 0.00 | 77 | 1010.7 |
| 20260504021730 | 8 | 143 | 1.6 | 3.2 | 0.00 | 0.00 | 0.00 | 77 | 1010.6 |
| 20260504021227 | 8 | 155 | 3.2 | 3.2 | 0.00 | 0.00 | 0.00 | 77 | 1010.5 |
| 20260504020724 | 9 | 154 | 3.2 | 3.2 | 0.00 | 0.00 | 0.00 | 78 | 1010.7 |
| 20260504020220 | 9 | 145 | 1.6 | 1.6 | 0.00 | 0.00 | 0.00 | 77 | 1010.7 |
| 20260504015716 | 9 | 140 | 1.6 | 3.2 | 0.00 | 0.00 | 0.00 | 77 | 1010.6 |
| 20260504015213 | 9 | 151 | 1.6 | 1.6 | 0.00 | 0.00 | 0.00 | 77 | 1010.3 |
| 20260504014708 | 9 | 154 | 1.6 | 3.2 | 0.00 | 0.00 | 0.00 | 76 | 1010.6 |
| 20260504014206 | 10 | 155 | 1.6 | 1.6 | 0.00 | 0.00 | 0.00 | 76 | 1010.2 |
| 20260504013703 | 10 | 135 | 0.0 | 0.0 | 0.00 | 0.00 | 0.00 | 76 | 1010.3 |
| 20260504013201 | 10 | 134 | 1.6 | 1.6 | 0.00 | 0.00 | 0.00 | 76 | 1010.2 |
| 20260504012657 | 10 | 150 | 3.2 | 4.8 | 0.00 | 0.00 | 0.00 | 75 | 1010.4 |
| 20260504012155 | 10 | 149 | 4.8 | 4.8 | 0.00 | 0.00 | 0.00 | 75 | 1010.3 |
| 20260504011652 | 10 | 141 | 1.6 | 1.6 | 0.00 | 0.00 | 0.00 | 75 | 1010.2 |
| 20260504011148 | 10 | 139 | 0.0 | 0.0 | 0.00 | 0.00 | 0.00 | 75 | 1010.4 |
| 20260504010644 | 10 | 169 | 3.2 | 3.2 | 0.00 | 0.00 | 0.00 | 75 | 1010.3 |
| 20260504010140 | 10 | 150 | 0.0 | 0.0 | 0.00 | 0.00 | 0.00 | 75 | 1010.3 |
| 20260504005637 | 10 | 168 | 3.2 | 3.2 | 0.00 | 0.00 | 0.00 | 75 | 1010.4 |
| 20260504005134 | 10 | 152 | 1.6 | 1.6 | 0.00 | 0.00 | 0.00 | 75 | 1010.5 |
| 20260504004632 | 10 | 164 | 1.6 | 3.2 | 0.00 | 0.00 | 0.00 | 75 | 1010.5 |
| 20260504004129 | 10 | 162 | 3.2 | 3.2 | 0.00 | 0.00 | 0.00 | 74 | 1010.3 |
| 20260504003625 | 10 | 154 | 0.0 | 0.0 | 0.00 | 0.00 | 0.00 | 73 | 1010.5 |
| 20260504003122 | 10 | 162 | 1.6 | 1.6 | 0.00 | 0.00 | 0.00 | 73 | 1010.4 |
| 20260504002619 | 10 | 216 | 3.2 | 3.2 | 0.00 | 0.00 | 0.00 | 73 | 1010.5 |
| 20260504002116 | 10 | 200 | 0.0 | 0.0 | 0.00 | 0.00 | 0.00 | 72 | 1010.6 |
| 20260504001614 | 10 | 203 | 3.2 | 4.8 | 0.00 | 0.00 | 0.00 | 72 | 1010.7 |
| 20260504001109 | 10 | 220 | 14.5 | 16.1 | 0.00 | 0.00 | 0.00 | 71 | 1010.7 |
| 20260504000607 | 10 | 218 | 11.3 | 12.9 | 0.00 | 0.00 | 0.00 | 70 | 1010.6 |
| 20260504000105 | 10 | 228 | 12.9 | 14.5 | 0.00 | 0.00 | 0.00 | 70 | 1010.7 |
| 20260503235603 | 10 | 230 | 9.7 | 12.9 | 0.00 | 0.00 | 0.00 | 69 | 1010.9 |
| 20260503235059 | 10 | 229 | 12.9 | 14.5 | 0.00 | 0.00 | 0.00 | 68 | 1011.1 |
| 20260503234557 | 10 | 241 | 20.9 | 27.4 | 0.00 | 0.00 | 0.00 | 68 | 1011.0 |
| 20260503234055 | 11 | 249 | 16.1 | 20.9 | 0.00 | 0.00 | 0.00 | 67 | 1010.9 |
| 20260503233551 | 11 | 270 | 17.7 | 24.1 | 0.00 | 0.00 | 0.00 | 66 | 1011.0 |
| 20260503233047 | 11 | 257 | 19.3 | 25.7 | 0.00 | 0.00 | 0.00 | 66 | 1011.0 |
| 20260503232544 | 11 | 259 | 27.4 | 33.8 | 0.00 | 0.00 | 0.00 | 64 | 1011.3 |
| 20260503232042 | 11 | 242 | 19.3 | 24.1 | 0.00 | 0.00 | 0.00 | 63 | 1011.0 |
| 20260503231539 | 12 | 238 | 20.9 | 25.7 | 0.00 | 0.00 | 0.00 | 61 | 1010.8 |
| 20260503231036 | 12 | 270 | 27.4 | 33.8 | 0.00 | 0.00 | 0.00 | 58 | 1010.9 |
| 20260503230532 | 12 | 253 | 19.3 | 24.1 | 0.00 | 0.00 | 0.00 | 56 | 1010.8 |
| 20260503230030 | 13 | 266 | 24.1 | 27.4 | 0.00 | 0.00 | 0.00 | 52 | 1010.6 |
| 20260503225527 | 14 | 234 | 16.1 | 17.7 | 0.00 | 0.00 | 0.00 | 45 | 1010.4 |
| 20260503225021 | 14 | 224 | 19.3 | 22.5 | 0.00 | 0.00 | 0.00 | 45 | 1010.3 |
| 20260503224520 | 14 | 222 | 16.1 | 22.5 | 0.00 | 0.00 | 0.00 | 45 | 1010.5 |
| 20260503224017 | 15 | 216 | 11.3 | 14.5 | 0.00 | 0.00 | 0.00 | 45 | 1010.6 |
| 20260503223515 | 15 | 263 | 11.3 | 12.9 | 0.00 | 0.00 | 0.00 | 44 | 1010.5 |
| 20260503223010 | 15 | 246 | 14.5 | 17.7 | 0.00 | 0.00 | 0.00 | 43 | 1010.4 |
| 20260503222509 | 15 | 247 | 8.0 | 9.7 | 0.00 | 0.00 | 0.00 | 43 | 1010.8 |
| 20260503222006 | 15 | 250 | 11.3 | 12.9 | 0.00 | 0.00 | 0.00 | 42 | 1010.6 |
| 20260503221504 | 15 | 211 | 9.7 | 12.9 | 0.00 | 0.00 | 0.00 | 43 | 1010.5 |
| 20260503221001 | 15 | 260 | 17.7 | 20.9 | 0.00 | 0.00 | 0.00 | 42 | 1010.7 |
| 20260503220457 | 15 | 199 | 9.7 | 12.9 | 0.00 | 0.00 | 0.00 | 43 | 1010.7 |
| 20260503215954 | 15 | 258 | 14.5 | 20.9 | 0.00 | 0.00 | 0.00 | 43 | 1010.8 |
| 20260503215451 | 15 | 234 | 12.9 | 16.1 | 0.00 | 0.00 | 0.00 | 43 | 1010.7 |
| 20260503214949 | 15 | 261 | 14.5 | 17.7 | 0.00 | 0.00 | 0.00 | 43 | 1010.7 |
| 20260503214447 | 15 | 214 | 22.5 | 27.4 | 0.00 | 0.00 | 0.00 | 42 | 1010.8 |
| 20260503213943 | 15 | 219 | 14.5 | 16.1 | 0.00 | 0.00 | 0.00 | 43 | 1010.8 |
| 20260503213437 | 15 | 286 | 12.9 | 16.1 | 0.00 | 0.00 | 0.00 | 42 | 1011.0 |
| 20260503212932 | 15 | 230 | 9.7 | 11.3 | 0.00 | 0.00 | 0.00 | 42 | 1010.8 |
| 20260503212430 | 15 | 276 | 14.5 | 16.1 | 0.00 | 0.00 | 0.00 | 42 | 1010.8 |
| 20260503211927 | 15 | 260 | 12.9 | 14.5 | 0.00 | 0.00 | 0.00 | 42 | 1010.8 |
| 20260503211424 | 15 | 249 | 12.9 | 14.5 | 0.00 | 0.00 | 0.00 | 42 | 1010.9 |
| 20260503210919 | 15 | 234 | 12.9 | 20.9 | 0.00 | 0.00 | 0.00 | 42 | 1010.9 |
| 20260503210416 | 15 | 211 | 24.1 | 30.6 | 0.00 | 0.00 | 0.00 | 41 | 1011.1 |
| 20260503205911 | 15 | 225 | 12.9 | 14.5 | 0.00 | 0.00 | 0.00 | 42 | 1011.1 |
| 20260503205409 | 15 | 230 | 9.7 | 14.5 | 0.00 | 0.00 | 0.00 | 43 | 1011.1 |
| 20260503204904 | 15 | 265 | 9.7 | 12.9 | 0.00 | 0.00 | 0.00 | 42 | 1011.1 |
| 20260503204402 | 15 | 242 | 11.3 | 12.9 | 0.00 | 0.00 | 0.00 | 42 | 1011.3 |
| 20260503203859 | 15 | 245 | 19.3 | 24.1 | 0.00 | 0.00 | 0.00 | 41 | 1011.5 |
| 20260503203356 | 15 | 257 | 17.7 | 22.5 | 0.00 | 0.00 | 0.00 | 41 | 1011.3 |
| 20260503202853 | 15 | 220 | 19.3 | 24.1 | 0.00 | 0.00 | 0.00 | 42 | 1011.3 |
| 20260503202351 | 15 | 227 | 14.5 | 17.7 | 0.00 | 0.00 | 0.00 | 42 | 1011.4 |
| 20260503201849 | 15 | 217 | 22.5 | 25.7 | 0.00 | 0.00 | 0.00 | 42 | 1011.4 |
| 20260503201346 | 15 | 234 | 11.3 | 12.9 | 0.00 | 0.00 | 0.00 | 41 | 1011.5 |
| 20260503200844 | 15 | 252 | 24.1 | 30.6 | 0.00 | 0.00 | 0.00 | 41 | 1011.5 |
| 20260503200339 | 15 | 245 | 14.5 | 16.1 | 0.00 | 0.00 | 0.00 | 43 | 1011.7 |
| 20260503195837 | 15 | 239 | 14.5 | 17.7 | 0.00 | 0.00 | 0.00 | 43 | 1011.8 |
| 20260503195333 | 15 | 241 | 14.5 | 16.1 | 0.00 | 0.00 | 0.00 | 41 | 1011.5 |
| 20260503194831 | 15 | 218 | 16.1 | 24.1 | 0.00 | 0.00 | 0.00 | 43 | 1011.7 |
| 20260503194326 | 15 | 293 | 9.7 | 12.9 | 0.00 | 0.00 | 0.00 | 44 | 1011.9 |
| 20260503193823 | 15 | 260 | 14.5 | 14.5 | 0.00 | 0.00 | 0.00 | 42 | 1012.0 |
| 20260503193319 | 16 | 229 | 11.3 | 12.9 | 0.00 | 0.00 | 0.00 | 41 | 1011.9 |
| 20260503192815 | 15 | 276 | 16.1 | 17.7 | 0.00 | 0.00 | 0.00 | 42 | 1012.0 |
| 20260503192310 | 15 | 225 | 11.3 | 12.9 | 0.00 | 0.00 | 0.00 | 43 | 1012.1 |
| 20260503191806 | 15 | 248 | 6.4 | 9.7 | 0.00 | 0.00 | 0.00 | 44 | 1012.0 |
| 20260503191304 | 15 | 239 | 20.9 | 24.1 | 0.00 | 0.00 | 0.00 | 42 | 1012.3 |
| 20260503190801 | 15 | 236 | 12.9 | 14.5 | 0.00 | 0.00 | 0.00 | 41 | 1012.3 |
| 20260503190258 | 15 | 243 | 17.7 | 22.5 | 0.00 | 0.00 | 0.00 | 43 | 1012.4 |
| 20260503185755 | 15 | 234 | 14.5 | 22.5 | 0.00 | 0.00 | 0.00 | 43 | 1012.6 |
| 20260503185250 | 15 | 274 | 11.3 | 14.5 | 0.00 | 0.00 | 0.00 | 44 | 1012.5 |
| 20260503184745 | 15 | 229 | 9.7 | 14.5 | 0.00 | 0.00 | 0.00 | 44 | 1012.5 |
| 20260503184241 | 15 | 227 | 14.5 | 17.7 | 0.00 | 0.00 | 0.00 | 43 | 1012.6 |
| 20260503183737 | 15 | 214 | 11.3 | 14.5 | 0.00 | 0.00 | 0.00 | 45 | 1012.9 |
| 20260503183235 | 15 | 232 | 20.9 | 25.7 | 0.00 | 0.00 | 0.00 | 43 | 1012.8 |
| 20260503182733 | 15 | 211 | 14.5 | 17.7 | 0.00 | 0.00 | 0.00 | 45 | 1012.7 |
| 20260503182232 | 15 | 247 | 11.3 | 14.5 | 0.00 | 0.00 | 0.00 | 42 | 1013.0 |
| 20260503181728 | 15 | 258 | 12.9 | 16.1 | 0.00 | 0.00 | 0.00 | 44 | 1013.1 |
| 20260503181225 | 15 | 269 | 14.5 | 16.1 | 0.00 | 0.00 | 0.00 | 42 | 1013.3 |
| 20260503180721 | 15 | 262 | 11.3 | 16.1 | 0.00 | 0.00 | 0.00 | 44 | 1013.1 |
| 20260503180220 | 15 | 231 | 14.5 | 24.1 | 0.00 | 0.00 | 0.00 | 43 | 1013.2 |
| 20260503175716 | 15 | 217 | 14.5 | 16.1 | 0.00 | 0.00 | 0.00 | 42 | 1013.3 |
| 20260503175214 | 15 | 273 | 12.9 | 16.1 | 0.00 | 0.00 | 0.00 | 44 | 1013.4 |
| 20260503174710 | 14 | 233 | 12.9 | 12.9 | 0.00 | 0.00 | 0.00 | 43 | 1013.3 |
| 20260503174207 | 14 | 222 | 12.9 | 14.5 | 0.00 | 0.00 | 0.00 | 46 | 1013.2 |
| 20260503173702 | 14 | 248 | 11.3 | 16.1 | 0.00 | 0.00 | 0.00 | 46 | 1013.4 |
| 20260503173159 | 15 | 288 | 14.5 | 17.7 | 0.00 | 0.00 | 0.00 | 44 | 1013.5 |
| 20260503172655 | 14 | 273 | 9.7 | 14.5 | 0.00 | 0.00 | 0.00 | 45 | 1013.5 |
| 20260503172153 | 14 | 267 | 17.7 | 24.1 | 0.00 | 0.00 | 0.00 | 41 | 1013.6 |
| 20260503171649 | 14 | 290 | 12.9 | 16.1 | 0.00 | 0.00 | 0.00 | 44 | 1013.8 |
| 20260503171147 | 14 | 271 | 8.0 | 11.3 | 0.00 | 0.00 | 0.00 | 44 | 1013.9 |
| 20260503170643 | 13 | 248 | 9.7 | 12.9 | 0.00 | 0.00 | 0.00 | 46 | 1013.7 |
| 20260503170140 | 13 | 302 | 19.3 | 22.5 | 0.00 | 0.00 | 0.00 | 43 | 1013.9 |
| 20260503150531 | 12 | 277 | 8.0 | 9.7 | 0.00 | 0.00 | 0.00 | 52 | 1014.9 |
| 20260503131419 | 7 | 224 | 4.8 | 6.4 | 0.00 | 0.00 | 0.00 | 63 | 1015.3 |
| 20260503130916 | 7 | 269 | 6.4 | 6.4 | 0.00 | 0.00 | 0.00 | 64 | 1015.3 |
| 20260503130414 | 7 | 254 | 12.9 | 14.5 | 0.00 | 0.00 | 0.00 | 63 | 1015.3 |
| 20260503110817 | 1 | 173 | 0.0 | 0.0 | 0.00 | 0.00 | 0.00 | 81 | 1014.9 |
| 20260503110314 | 1 | 180 | 0.0 | 0.0 | 0.00 | 0.00 | 0.00 | 82 | 1014.8 |
| 20260503100240 | 1 | 173 | 0.0 | 0.0 | 0.00 | 0.00 | 0.00 | 81 | 1014.4 |